CAPE
0 27 445 610 557 900 1041 932 822 776 824 772 609 521 744 770 555 432 706 697 577 564 577 567 658 757 664 439 396 435 402 319 221 138 15 0 0 647 1065 821 672 361 687
0 0 78 263 425 501 507 743 749 723 696 670 563 480 369 398 295 246 241 302 444 519 577 687 520 380 376 438 339 315 339 205 24 17 0 9 0 4 1085 886 802 646 379
0 0 0 63 116 125 115 78 99 195 257 398 230 193 108 29 50 65 23 11 16 32 55 126 63 29 32 86 230 278 204 167 28 0 0 16 0 342 708 960 949 904 823
0 0 0 0 0 57 10 31 54 10 91 129 114 12 0 0 1 2 1 1 1 2 4 3 3 2 1 0 17 77 166 186 89 0 0 0 12 6 54 655 876 877 756
0 0 0 0 1 2 2 1 7 1 1 4 0 1 1 3 1 0 0 0 0 0 0 1 1 1 0 0 0 0 1 0 0 0 0 0 22 97 332 231 90 168 441
0 0 0 0 0 0 0 0 1 1 4 0 0 0 0 0 0 0 0 0 0 0 0 0 0 0 0 0 0 0 0 0 0 0 0 0 0 0 258 333 217 155 35
0 0 0 0 0 0 0 0 0 0 0 0 0 0 0 0 0 0 0 0 0 0 0 0 0 0 0 0 0 0 0 0 0 0 0 0 0 37 94 184 220 136 130
0 0 0 0 0 0 0 0 0 0 0 0 0 0 0 0 0 0 0 0 0 0 0 0 0 0 0 0 0 0 0 0 0 0 0 0 0 0 15 106 106 92 62
0 0 0 0 0 0 0 0 0 0 0 0 0 0 0 0 0 0 0 0 0 0 0 0 0 0 0 0 0 0 0 0 0 0 0 0 0 9 171 69 51 78 44
0 0 0 0 0 0 0 0 0 0 0 0 0 0 0 0 0 0 0 0 0 0 0 0 0 0 0 0 0 0 0 0 0 0 0 0 0 0 0 9 189 138 49
0 0 0 0 0 0 0 0 0 0 0 0 0 0 0 0 0 0 0 0 0 0 0 0 0 0 0 0 0 0 0 0 0 0 0 0 0 0 0 0 0 6 96
0 0 0 0 0 0 0 0 0 0 0 0 0 0 0 0 0 0 0 0 0 0 0 0 0 0 0 0 0 0 0 0 0 0 0 0 0 0 0 0 0 0 0
0 0 0 0 0 0 0 0 0 0 0 0 0 0 0 0 0 0 0 0 0 0 0 0 0 0 0 0 0 0 0 0 0 0 0 0 0 0 0 0 0 0 0
0 0 0 0 0 0 0 0 0 0 0 0 0 0 0 0 0 0 0 0 0 0 0 0 0 0 0 0 0 0 0 0 0 0 0 0 0 0 0 0 0 0 0
0 0 0 0 0 0 0 0 0 0 0 0 0 0 0 0 0 0 0 0 0 0 0 0 0 0 0 0 0 0 0 0 0 0 0 0 0 0 0 0 0 0 0
0 0 0 0 0 0 0 0 0 0 0 0 0 0 0 0 0 0 0 0 0 0 0 0 0 0 0 0 0 0 0 0 0 0 0 0 0 0 0 0 0 0 0
0 0 0 0 0 0 0 0 0 0 0 0 0 0 0 0 0 0 0 0 0 0 0 0 0 0 0 0 0 0 0 0 0 0 0 0 0 0 0 0 0 0 0
0 0 0 0 0 0 0 0 0 0 0 0 0 0 0 0 0 0 0 0 0 0 0 0 0 0 0 0 0 0 0 0 0 0 0 0 0 0 0 0 0 0 0
0 0 0 0 0 0 0 0 0 0 0 0 0 0 0 0 0 0 0 0 0 0 0 0 0 0 0 0 0 0 0 0 0 0 0 0 0 0 0 0 0 0 0
0 0 0 0 0 0 0 0 0 0 0 0 0 0 0 0 0 0 0 0 0 0 0 0 0 0 0 0 0 0 0 0 0 0 0 0 0 0 0 0 0 0 0
0 0 0 0 0 0 0 0 0 0 0 0 0 0 0 0 0 0 0 0 0 0 0 0 0 0 0 0 0 0 0 0 0 0 0 0 0 0 0 0 0 0 0
0 0 0 0 0 0 0 0 0 0 0 0 0 0 0 0 0 0 0 0 0 0 0 0 0 0 0 0 0 0 0 0 0 0 0 0 0 0 0 0 0 0 0
0 0 0 0 0 0 0 0 0 0 0 0 0 0 0 0 0 0 0 0 0 0 0 0 0 0 0 0 0 0 0 0 0 0 0 0 0 0 0 0 0 0 0
0 0 0 0 0 0 0 0 0 0 0 0 0 0 0 0 0 0 0 0 0 0 0 0 0 0 0 0 0 0 0 0 0 0 0 0 0 0 0 0 0 0 0
0 0 0 0 0 0 0 0 0 0 0 0 0 0 0 0 0 0 0 0 0 0 0 0 0 0 0 0 0 0 0 0 0 0 0 0 0 0 0 0 0 0 0
0 0 0 0 0 0 0 0 0 0 0 0 0 0 0 0 0 0 0 0 0 0 0 0 0 0 0 0 0 0 0 0 0 0 0 0 0 0 0 0 0 0 0
CIN
-0 -338 -133 -83 -86 -10 -0 -1 -4 -4 -1 -1 -6 -8 -0 -0 -4 -13 -2 -1 -3 -4 -4 -4 -3 -0 -0 -1 -3 -11 -24 -47 -70 -87 -148 -0 -0 -30 -5 -21 -26 -58 -16
-0 -0 -352 -211 -141 -100 -83 -20 -15 -5 -0 -0 -2 -2 -21 -5 -31 -81 -70 -69 -39 -22 -9 -0 -2 -14 -16 -7 -10 -15 -7 -29 -112 -106 -0 -109 -0 -43 -3 -16 -9 -24 -56
-0 -0 -0 -383 -318 -302 -284 -297 -234 -160 -117 -62 -120 -128 -175 -193 -176 -207 -286 -226 -184 -207 -189 -137 -170 -227 -163 -146 -47 -30 -55 -66 -174 -0 -0 -150 -0 -30 -4 -3 -4 -5 -7
-0 -0 -0 -0 -0 -382 -452 -390 -322 -383 -251 -218 -235 -196 -0 -0 -1 -1 -1 -0 -1 -0 -0 -0 -0 -0 -0 -1 -144 -161 -98 -103 -158 -0 -0 -0 -72 -74 -103 -3 -2 -1 -11
-0 -0 -0 -0 -0 -0 -0 -0 -121 -0 -1 -1 -0 -0 -0 -0 -0 -0 -0 -0 -0 -0 -0 -0 -0 -0 -0 -0 -0 -0 -0 -0 -0 -0 -0 -0 -248 -146 -42 -45 -101 -74 -16
-0 -0 -0 -0 -0 -0 -0 -0 -0 -0 -0 -0 -0 -0 -0 -0 -0 -0 -0 -0 -0 -0 -0 -0 -0 -0 -0 -0 -0 -0 -0 -0 -0 -0 -0 -0 -0 -2 -61 -51 -78 -103 -197
-0 -0 -0 -0 -0 -0 -0 -0 -0 -0 -0 -0 -0 -0 -0 -0 -0 -0 -0 -0 -0 -0 -0 -0 -0 -0 -0 -0 -0 -0 -0 -0 -0 -0 -0 -0 -0 -215 -188 -112 -106 -146 -130
-0 -0 -0 -0 -0 -0 -0 -0 -0 -0 -0 -0 -0 -0 -0 -0 -0 -0 -0 -0 -0 -0 -0 -0 -0 -0 -0 -0 -0 -0 -0 -0 -0 -0 -0 -0 -0 -0 -152 -198 -178 -199 -248
-0 -0 -0 -0 -0 -0 -0 -0 -0 -0 -0 -0 -0 -0 -0 -0 -0 -0 -0 -0 -0 -0 -0 -0 -0 -0 -0 -0 -0 -0 -0 -0 -0 -0 -0 -0 -0 -18 -225 -253 -258 -238 -303
-0 -0 -0 -0 -0 -0 -0 -0 -0 -0 -0 -0 -0 -0 -0 -0 -0 -0 -0 -0 -0 -0 -0 -0 -0 -0 -0 -0 -0 -0 -0 -0 -0 -0 -0 -0 -0 -0 -0 -2 -176 -181 -235
-0 -0 -0 -0 -0 -0 -0 -0 -0 -0 -0 -0 -0 -0 -0 -0 -0 -0 -0 -0 -0 -0 -0 -0 -0 -0 -0 -0 -0 -0 -0 -0 -0 -0 -0 -0 -0 -0 -0 -0 -0 -96 -248
-0 -0 -0 -0 -0 -0 -0 -0 -0 -0 -0 -0 -0 -0 -0 -0 -0 -0 -0 -0 -0 -0 -0 -0 -0 -0 -0 -0 -0 -0 -0 -0 -0 -0 -0 -0 -0 -0 -0 -0 -0 -0 -0
-0 -0 -0 -0 -0 -0 -0 -0 -0 -0 -0 -0 -0 -0 -0 -0 -0 -0 -0 -0 -0 -0 -0 -0 -0 -0 -0 -0 -0 -0 -0 -0 -0 -0 -0 -0 -0 -0 -0 -0 -0 -0 -0
-0 -0 -0 -0 -0 -0 -0 -0 -0 -0 -0 -0 -0 -0 -0 -0 -0 -0 -0 -0 -0 -0 -0 -0 -0 -0 -0 -0 -0 -0 -0 -0 -0 -0 -0 -0 -0 -0 -0 -0 -0 -0 -0
-0 -0 -0 -0 -0 -0 -0 -0 -0 -0 -0 -0 -0 -0 -0 -0 -0 -0 -0 -0 -0 -0 -0 -0 -0 -0 -0 -0 -0 -0 -0 -0 -0 -0 -0 -0 -0 -0 -0 -0 -0 -0 -0
-0 -0 -0 -0 -0 -0 -0 -0 -0 -0 -0 -0 -0 -0 -0 -0 -0 -0 -0 -0 -0 -0 -0 -0 -0 -0 -0 -0 -0 -0 -0 -0 -0 -0 -0 -0 -0 -0 -0 -0 -0 -0 -0
-0 -0 -0 -0 -0 -0 -0 -0 -0 -0 -0 -0 -0 -0 -0 -0 -0 -0 -0 -0 -0 -0 -0 -0 -0 -0 -0 -0 -0 -0 -0 -0 -0 -0 -0 -0 -0 -0 -0 -0 -0 -0 -0
-0 -0 -0 -0 -0 -0 -0 -0 -0 -0 -0 -0 -0 -0 -0 -0 -0 -0 -0 -0 -0 -0 -0 -0 -0 -0 -0 -0 -0 -0 -0 -0 -0 -0 -0 -0 -0 -0 -0 -0 -0 -0 -0
-0 -0 -0 -0 -0 -0 -0 -0 -0 -0 -0 -0 -0 -0 -0 -0 -0 -0 -0 -0 -0 -0 -0 -0 -0 -0 -0 -0 -0 -0 -0 -0 -0 -0 -0 -0 -0 -0 -0 -0 -0 -0 -0
-0 -0 -0 -0 -0 -0 -0 -0 -0 -0 -0 -0 -0 -0 -0 -0 -0 -0 -0 -0 -0 -0 -0 -0 -0 -0 -0 -0 -0 -0 -0 -0 -0 -0 -0 -0 -0 -0 -0 -0 -0 -0 -0
-0 -0 -0 -0 -0 -0 -0 -0 -0 -0 -0 -0 -0 -0 -0 -0 -0 -0 -0 -0 -0 -0 -0 -0 -0 -0 -0 -0 -0 -0 -0 -0 -0 -0 -0 -0 -0 -0 -0 -0 -0 -0 -0
-0 -0 -0 -0 -0 -0 -0 -0 -0 -0 -0 -0 -0 -0 -0 -0 -0 -0 -0 -0 -0 -0 -0 -0 -0 -0 -0 -0 -0 -0 -0 -0 -0 -0 -0 -0 -0 -0 -0 -0 -0 -0 -0
-0 -0 -0 -0 -0 -0 -0 -0 -0 -0 -0 -0 -0 -0 -0 -0 -0 -0 -0 -0 -0 -0 -0 -0 -0 -0 -0 -0 -0 -0 -0 -0 -0 -0 -0 -0 -0 -0 -0 -0 -0 -0 -0
-0 -0 -0 -0 -0 -0 -0 -0 -0 -0 -0 -0 -0 -0 -0 -0 -0 -0 -0 -0 -0 -0 -0 -0 -0 -0 -0 -0 -0 -0 -0 -0 -0 -0 -0 -0 -0 -0 -0 -0 -0 -0 -0
-0 -0 -0 -0 -0 -0 -0 -0 -0 -0 -0 -0 -0 -0 -0 -0 -0 -0 -0 -0 -0 -0 -0 -0 -0 -0 -0 -0 -0 -0 -0 -0 -0 -0 -0 -0 -0 -0 -0 -0 -0 -0 -0
-0 -0 -0 -0 -0 -0 -0 -0 -0 -0 -0 -0 -0 -0 -0 -0 -0 -0 -0 -0 -0 -0 -0 -0 -0 -0 -0 -0 -0 -0 -0 -0 -0 -0 -0 -0 -0 -0 -0 -0 -0 -0 -0
Wind_Speed
15 17 18 16 18 17 17 17 18 18 18 18 17 17 17 17 16 17 16 15 16 16 16 17 17 17 18 18 19 19 20 20 21 21 22 22 21 20 19 19 19 20 20
13 13 13 14 14 14 15 16 16 16 17 17 17 17 17 17 18 17 16 16 16 17 17 17 17 18 19 19 19 20 20 21 22 22 23 22 22 22 18 19 20 20 21
10 10 10 11 11 11 11 12 13 14 14 15 16 16 16 17 17 17 17 17 17 17 18 19 19 20 20 20 20 21 21 22 22 23 24 22 23 19 19 19 20 20 21
9 9 9 9 10 10 10 10 11 12 12 13 14 15 16 16 16 16 17 18 18 18 19 19 20 21 21 21 22 22 22 22 23 23 23 23 21 21 21 21 23 23 23
8 8 8 9 9 9 10 10 11 11 12 13 14 14 14 15 16 16 17 18 18 19 20 20 21 22 22 23 23 23 23 24 24 24 23 23 23 23 22 21 23 24 25
7 7 7 8 8 9 9 10 10 11 12 12 13 14 14 15 15 16 18 19 19 20 20 21 22 23 23 24 24 24 24 25 25 24 24 23 23 22 20 22 23 24 25
5 6 6 7 7 7 8 9 10 10 11 12 12 13 14 15 16 17 18 19 20 20 21 22 22 23 24 25 25 25 26 27 26 26 25 25 24 23 19 20 21 24 25
4 4 6 6 5 6 6 7 8 9 10 11 12 13 13 14 15 16 18 18 19 20 21 22 23 24 24 25 25 25 26 28 28 28 24 23 24 26 24 21 21 22 24
4 3 4 4 5 5 5 6 7 8 9 10 10 11 13 14 15 17 18 19 20 21 21 22 23 24 24 25 25 26 27 27 27 27 25 22 24 26 25 19 17 21 24
4 2 1 1 2 4 5 5 6 7 8 9 9 11 12 14 15 17 18 19 21 21 22 23 24 24 25 26 26 27 27 27 28 27 27 28 30 28 27 26 24 21 23
5 5 5 4 1 2 4 5 6 6 7 8 9 11 12 14 14 16 17 18 20 21 22 24 24 26 27 27 27 28 28 28 28 29 28 29 30 29 30 30 29 27 27
7 8 7 6 4 2 3 4 5 6 7 9 9 10 12 14 15 15 17 18 19 20 22 24 25 26 27 28 28 28 28 29 29 29 28 30 31 30 30 30 29 29 29
7 6 8 7 6 4 3 4 5 7 8 9 10 11 12 13 15 16 17 19 20 21 22 24 25 27 28 28 29 30 30 30 30 30 30 31 31 32 31 29 24 24 26
9 9 8 8 7 6 4 4 4 5 8 9 10 10 11 13 15 16 17 18 19 21 23 25 27 28 28 29 30 30 31 31 31 30 30 31 31 31 30 25 25 24 25
10 10 10 9 9 8 7 6 5 5 5 7 8 11 11 12 14 16 17 19 20 22 24 26 27 29 30 31 31 31 32 32 32 31 31 32 32 33 32 28 26 19 18
12 12 11 11 10 9 9 8 7 6 5 5 7 9 10 12 14 16 18 19 21 23 24 26 28 29 30 31 32 33 33 32 33 33 33 33 33 34 33 31 30 27 26
13 12 13 11 11 11 10 9 8 7 7 7 8 8 10 11 13 15 17 19 21 23 24 26 28 29 30 31 32 34 33 34 34 34 33 32 31 31 31 32 31 32 32
15 15 14 12 12 12 11 10 9 8 7 7 7 8 10 11 13 14 16 18 20 22 24 26 27 30 31 32 34 35 35 35 35 32 32 32 31 30 31 32 31 32 32
14 14 15 15 14 12 11 10 10 9 8 8 7 8 9 10 11 13 14 17 19 21 23 25 27 29 32 34 35 36 36 37 34 32 31 31 31 31 31 30 31 32 32
15 14 14 14 14 13 11 10 9 9 9 8 8 8 9 10 11 12 14 16 18 20 23 25 27 29 31 34 36 37 37 35 33 31 29 31 34 33 32 32 32 33 32
14 13 13 13 14 13 13 12 11 11 10 9 9 9 9 10 11 12 13 14 17 20 22 24 27 29 31 34 35 37 33 33 30 26 34 36 34 33 34 33 32 35 36
12 12 11 12 13 13 13 12 11 10 10 10 9 10 10 10 10 11 12 15 17 19 23 24 26 29 30 31 34 34 35 32 27 41 34 37 36 32 34 36 38 37 36
11 12 12 12 13 13 12 11 10 9 10 10 12 11 11 10 10 11 13 14 16 18 22 24 25 27 30 30 31 31 34 35 43 31 40 34 34 39 40 38 38 38 39
11 11 12 12 13 13 12 12 12 13 12 12 12 12 12 12 12 12 13 15 17 20 22 23 24 25 27 31 30 27 29 33 39 45 33 38 42 37 43 43 42 40 40
9 10 10 11 12 13 13 13 13 13 13 13 14 14 14 13 13 13 13 15 18 20 21 21 22 25 26 29 30 32 32 33 35 39 51 40 45 43 43 40 42 42 41
8 9 10 11 12 13 13 14 15 14 13 14 14 14 15 15 15 15 16 17 18 19 20 21 22 23 27 29 30 31 32 34 37 40 46 51 52 46 45 46 40 41 40
Wind_Direction
93 103 95 75 88 73 69 76 94 83 70 60 47 41 31 21 356 345 334 327 327 322 320 320 323 323 325 325 321 317 314 313 312 310 310 305 309 319 330 332 328 331 332
74 69 59 66 64 65 68 61 57 54 55 53 46 44 35 28 28 360 349 336 333 335 337 335 331 329 322 323 321 321 319 317 316 309 302 298 300 305 328 334 328 323 324
51 50 39 46 43 39 31 44 52 57 43 41 34 20 17 17 10 11 1 349 340 330 325 327 330 325 319 322 321 323 324 322 319 320 311 308 304 323 321 327 330 329 323
54 46 20 18 25 32 24 2 13 29 35 17 20 11 1 16 16 15 12 4 356 349 345 340 333 329 323 319 322 324 326 324 319 314 314 316 325 324 324 321 316 318 320
53 44 31 27 23 19 19 21 27 21 20 7 358 2 5 359 1 359 359 358 355 351 344 340 334 331 329 326 322 319 319 320 319 322 326 319 324 324 327 331 325 319 315
45 47 43 37 29 25 25 24 24 21 20 16 11 9 5 359 355 350 346 341 338 336 335 333 328 324 324 324 319 317 318 318 319 325 327 328 326 332 335 331 326 325 321
38 31 30 32 31 27 22 21 19 19 19 14 10 3 1 357 355 350 347 346 343 340 337 335 331 328 326 322 318 319 318 314 318 319 320 320 324 330 337 336 334 329 324
54 20 355 1 17 27 29 24 15 11 11 9 11 11 9 5 358 354 350 348 346 343 338 335 331 331 330 329 328 326 322 316 314 314 326 328 325 316 323 329 330 330 328
73 27 355 351 350 358 6 5 2 1 4 10 13 12 7 359 353 348 349 348 343 341 337 331 330 330 330 327 327 324 316 315 316 320 328 337 329 326 325 329 333 329 325
115 118 110 71 342 331 335 348 348 349 356 2 4 359 356 351 348 343 342 341 341 339 334 328 328 329 329 329 326 323 319 316 317 321 324 320 311 317 325 326 330 332 327
152 160 162 161 176 319 327 326 329 335 345 354 355 347 347 344 344 343 341 341 341 338 335 331 329 327 325 327 325 322 322 323 323 319 317 312 312 314 311 315 318 322 322
179 175 172 173 185 211 306 308 313 318 322 327 334 339 340 340 339 341 338 338 338 338 336 332 329 326 327 324 322 323 324 320 316 315 316 311 310 315 318 316 319 319 316
199 194 193 191 189 199 259 273 293 303 310 314 321 324 330 334 334 333 332 331 331 332 333 332 329 327 325 324 320 318 321 317 309 308 308 306 306 308 314 324 334 330 324
213 212 207 208 209 218 237 235 259 288 300 307 314 319 324 328 330 329 329 328 328 327 327 326 326 325 324 322 317 314 312 310 308 307 309 313 316 317 320 336 335 333 329
234 226 216 210 216 224 233 239 249 262 283 300 309 313 317 321 323 326 325 326 325 324 324 324 322 321 319 317 316 313 308 305 302 306 310 311 316 312 315 327 333 340 337
242 234 226 222 222 226 235 238 247 254 267 286 305 312 316 318 320 321 322 323 323 321 322 322 321 320 318 316 313 311 308 301 301 305 307 311 311 310 315 321 324 331 333
255 246 231 231 227 228 233 241 245 251 267 282 295 307 313 316 319 320 320 320 320 320 320 320 320 319 317 316 312 307 304 302 300 305 305 310 314 315 318 318 323 326 328
261 245 238 237 229 231 232 239 245 254 263 276 288 300 307 312 316 319 320 320 320 320 319 319 319 317 316 315 309 304 304 301 301 306 308 310 313 318 319 317 324 325 326
252 244 235 234 230 231 234 241 245 252 261 267 279 289 299 309 315 318 320 319 320 319 319 319 319 318 314 311 307 305 306 302 302 308 309 309 312 317 319 322 324 324 325
252 243 238 237 232 229 234 240 250 257 266 270 275 282 293 301 307 313 317 318 320 319 319 319 318 317 315 311 306 305 307 307 307 309 312 316 314 317 318 318 321 322 324
252 246 234 229 228 226 228 231 243 242 252 263 268 279 287 294 300 307 312 315 317 318 319 319 317 316 316 315 313 311 313 314 313 315 314 314 319 318 318 320 322 319 321
241 237 226 222 218 222 228 232 252 248 266 268 275 279 281 284 290 298 305 310 315 318 318 318 317 316 317 319 314 313 310 314 315 311 314 315 315 318 317 316 317 320 321
237 230 217 218 215 218 223 230 265 264 286 277 272 270 271 273 282 292 299 307 312 316 317 317 317 316 314 316 319 316 312 308 310 317 314 316 316 313 314 317 317 317 317
244 235 220 217 212 218 222 227 236 241 256 270 272 273 274 273 280 288 295 302 307 313 317 317 317 317 316 313 318 319 316 313 310 308 315 314 312 315 313 312 314 316 316
250 232 219 216 219 225 224 229 237 250 264 290 290 281 277 276 279 284 291 298 303 309 315 316 316 315 315 314 314 315 316 314 312 308 306 312 312 313 313 314 315 314 316
259 240 233 222 221 225 230 236 237 247 263 282 287 282 276 275 278 282 289 295 301 306 313 314 315 317 316 314 313 313 313 313 313 312 309 308 309 313 314 313 315 314 316